Weather observations for the past three days for
Delaware Municipal Airport
Metric (Imperial)
Date Time (edt) Wind (kph) Vis. (km) Weather Sky Cond. Temperature (ºC) Relative Humidity Wind Chill (°C) Heat Index (°C) Pressure Precipitation (cm)
Air Dwpt 6 hour altimeter (cm) sea level (mb) 1 hr 3 hr 6 hr
Max. Min.
07 09:35 NW 15 16.09 Fair CLR 10 2 58% 8 76.1 0.0
07 09:15 NW 17 16.09 Fair CLR 10 3 62% 8 76.1 0.0
07 08:55 NW 13 16.09 Fair CLR 9 4 71% 7 76.1 0.0
07 08:35 NW 15 16.09 Fair CLR 8 4 76% 6 76.07 0.0
07 08:15 NW 15 16.09 Fair CLR 7 4 81% 5 76.1 0.0
07 07:55 NW 15 16.09 Fair CLR 6 4 6.2 4.3 87% 3 76.07 0.0
07 07:35 W 9 16.09 Fair CLR 6 5 93% 4 76.1 0.0
07 07:15 Vrbl 4 16.09 Fair CLR 5 4 93% 76.07 0.0
07 06:55 Vrbl 4 16.09 Fair CLR 5 4 93% 76.05 0.0
07 06:35 Vrbl 6 16.09 Fair CLR 5 4 93% 76.05 0.0
07 06:15 W 6 16.09 Fair CLR 5 4 93% 76.05 0.0
07 05:55 W 6 16.09 Fair CLR 5 4 93% 76.02 0.0
07 05:35 W 4 16.09 Fair CLR 5 4 93% 76.02 0.0
07 05:15 W 4 16.09 Fair CLR 5 4 93% 76.02 0.0
07 04:55 W 4 16.09 Fair CLR 5 5 100% 76.02 0.0
07 04:35 W 4 16.09 Fair CLR 5 5 100% 76.02 0.0
07 04:15 Vrbl 4 16.09 A Few Clouds FEW060 5 5 100% 76.02 0.0
07 03:55 SW 4 16.09 Partly Cloudy SCT060 5 5 100% 76.02 0.0
07 03:35 W 6 16.09 Partly Cloudy SCT060 5 5 100% 76.02 0.0
07 03:15 SW 6 16.09 Mostly Cloudy BKN060 6 5 93% 76.02 0.0
07 02:55 Calm 16.09 Overcast OVC060 6 6 100% 76.02 0.0
07 02:35 Calm 16.09 Overcast OVC060 5 5 100% 76.05 0.0
07 02:15 SW 2 16.09 Mostly Cloudy BKN060 5 5 100% 76.05 0.0
07 01:55 S 4 16.09 A Few Clouds FEW060 5 5 11.4 5.2 100% 76.05 0.0
07 01:35 SW 2 16.09 A Few Clouds FEW060 6 6 100% 76.07 0.0
07 01:15 S 2 16.09 Fair CLR 5 5 100% 76.07 0.0
07 00:55 S 2 16.09 A Few Clouds FEW055 6 6 100% 76.07 0.0
07 00:35 S 2 16.09 A Few Clouds FEW055 6 6 100% 76.07 0.0
07 00:15 SW 4 16.09 Fair CLR 6 6 100% 76.07 0.0
06 23:55 SW 2 16.09 Fair CLR 7 6 93% 76.07 0.0
06 23:35 Calm 16.09 Fair CLR 7 6 93% 76.1 0.0
06 23:15 W 2 16.09 Fair CLR 8 6 87% 76.1 0.0
06 22:55 W 4 16.09 Mostly Cloudy BKN120 8 7 93% 76.1 0.0
06 22:35 W 2 16.09 Partly Cloudy SCT110 8 7 93% 76.1 0.0
06 22:15 NW 2 16.09 Fair CLR 8 6 87% 76.07 0.0
06 21:55 W 4 16.09 Partly Cloudy SCT090 9 6 82% 76.07 0.0
06 21:35 Vrbl 4 16.09 Overcast OVC090 10 5 71% 76.07 0.0
06 21:15 W 6 16.09 Mostly Cloudy BKN090 10 4 67% 76.05 0.0
06 20:55 NW 6 16.09 Overcast OVC080 10 6 76% 76.02 0.0
06 20:35 NW 9 16.09 Overcast OVC080 11 4 62% 76.02 0.0
06 20:15 NW 11 16.09 Overcast OVC090 11 3 58% 76 0.0
06 19:55 NW 11 16.09 Overcast OVC090 11 3 14.2 11.3 58% 76 0.0
06 19:35 NW 11 16.09 Overcast OVC090 12 3 54% 76 0.0
06 19:15 NW 11 16.09 Overcast OVC090 12 3 54% 76.02 0.0
06 18:55 NW 15 16.09 Overcast OVC090 12 3 54% 76.05 0.0
06 18:35 NW 15 16.09 Overcast OVC090 12 3 54% 76.02 0.0
06 18:15 NW 17 16.09 Overcast OVC090 12 3 54% 76.02 0.0
06 17:55 NW 13 16.09 Overcast OVC090 12 3 54% 76 0.0
06 17:35 NW 11 16.09 Overcast OVC090 12 3 54% 75.97 0.0
06 17:15 NW 17 16.09 Overcast OVC090 13 3 51% 75.97 0.0
06 16:55 N 13 16.09 Overcast OVC090 13 3 51% 75.97 0.0
06 16:35 N 17 16.09 Overcast OVC090 13 3 51% 75.95 0.0
06 16:15 NW 17 16.09 Overcast OVC090 13 3 51% 75.95 0.0
06 15:55 NW 19 16.09 Overcast OVC090 12 3 54% 75.97 0.0
06 15:35 N 15 16.09 Overcast OVC090 13 4 55% 75.97 0.0
06 15:15 NW 17 16.09 Overcast OVC090 13 4 55% 75.97 0.0
06 14:55 NW 20 16.09 Overcast OVC090 13 5 59% 75.95 0.0
06 14:35 N 17 16.09 Overcast FEW045 OVC090 14 5 55% 75.95 0.0
06 14:15 NW 19 16.09 Mostly Cloudy FEW047 BKN090 BKN110 14 5 55% 75.97 0.0
06 13:55 N 13 16.09 Mostly Cloudy FEW045 BKN100 14 4 14.7 7.2 51% 75.95 0.0
06 13:35 NW 20 16.09 Mostly Cloudy SCT043 BKN100 14 6 59% 75.95 0.0
06 13:15 N 9 16.09 Partly Cloudy FEW041 SCT100 14 6 59% 75.95 0.0
06 12:55 NW 19 G 28 16.09 A Few Clouds FEW039 FEW090 14 6 59% 75.95 0.0
06 12:35 N 17 16.09 A Few Clouds FEW090 13 6 63% 75.95 0.0
06 12:15 Vrbl 11 16.09 A Few Clouds FEW037 FEW090 13 7 67% 75.97 0.0
06 11:55 N 17 16.09 A Few Clouds FEW060 12 7 72% 75.95 0.0
06 11:35 NW 15 16.09 Mostly Cloudy BKN060 12 8 77% 75.92 0.0
06 11:15 NW 19 16.09 Overcast OVC060 11 7 77% 75.9 0.0
06 10:55 NW 13 16.09 Overcast OVC060 10 7 82% 8 75.9 0.0
06 10:35 N 15 16.09 Overcast OVC060 10 6 76% 8 75.9 0.0
06 10:15 N 20 16.09 Overcast OVC050 10 6 76% 8 75.87 0.0
06 09:55 N 17 16.09 Overcast OVC050 9 6 82% 7 75.84 0.0
06 09:35 N 15 16.09 Overcast OVC050 9 7 87% 7 75.84 0.0
06 09:15 N 13 16.09 Overcast OVC048 8 7 93% 6 75.84 0.0
06 08:55 NW 15 16.09 Overcast OVC046 8 7 93% 6 75.82 0.0
06 08:35 N 13 16.09 Overcast OVC044 7 7 100% 5 75.79 0.0
06 08:15 N 11 16.09 Overcast OVC042 7 7 100% 5 75.77 0.0
06 07:55 NW 9 16.09 Overcast OVC042 7 7 8.2 7.1 100% 5 75.77 0.0
06 07:35 N 11 16.09 Overcast OVC038 7 7 100% 5 75.72 0.0
06 07:15 N 13 16.09 Overcast SCT009 SCT015 OVC036 7 7 100% 5 75.69 0.0
06 06:55 N 13 16.09 Overcast BKN009 BKN013 OVC036 8 8 100% 6 75.69 0.0
06 06:35 N 11 16.09 Overcast BKN009 BKN013 OVC036 7 7 100% 5 75.67 0.0
06 06:15 N 15 G 28 16.09 Overcast BKN009 OVC013 8 8 100% 6 75.69 0.0
06 05:55 N 11 16.09 Overcast BKN009 OVC038 8 8 100% 6 75.62 0.0
06 05:35 N 13 16.09 Overcast BKN007 OVC050 7 7 100% 5 75.59 0.0
06 05:15 N 13 16.09 Light Drizzle SCT007 BKN032 OVC050 7 7 100% 5 75.59 0.0
06 04:55 N 17 9.66 Light Rain Fog/Mist BKN007 OVC032 7 7 100% 4 75.59 0.0 0.08
06 04:35 N 17 3.22 Light Rain Fog/Mist OVC007 7 7 100% 4 75.62 0.0
06 04:15 N 20 G 28 4.02 Light Rain Fog/Mist OVC005 7 7 100% 4 75.62 0.0
06 03:55 N 13 G 30 16.09 Overcast OVC005 8 8 100% 6 75.59 0.0
06 03:35 N 22 14.48 Light Rain BKN007 OVC025 8 8 100% 5 75.57 0.0
06 03:15 N 20 8.05 Light Rain Fog/Mist BKN007 BKN021 OVC031 8 8 100% 5 75.59 0.0
06 02:55 N 20 G 28 4.02 Light Rain Fog/Mist BKN007 BKN023 OVC029 8 8 100% 5 75.59 0.0 0.1
06 02:35 N 17 6.44 Light Rain Fog/Mist BKN007 BKN013 OVC025 8 8 100% 6 75.57 0.0
06 02:15 N 19 G 31 4.83 Light Rain Fog/Mist OVC007 8 8 100% 5 75.59 0.0
06 01:55 N 22 G 30 4.02 Light Rain Fog/Mist OVC007 8 8 14.9 8.1 100% 5 75.59 0.0 0.08
06 01:35 N 13 16.09 Light Rain OVC007 8 8 100% 6 75.59 0.0
06 01:15 N 17 4.83 Light Rain Fog/Mist OVC005 9 9 100% 7 75.59 0.0
06 00:55 N 15 2.82 Light Rain Fog/Mist OVC005 9 9 100% 7 75.62 0.0 0.03
06 00:35 N 15 16.09 Overcast FEW008 OVC024 9 9 100% 7 75.59 0.0
06 00:15 N 13 16.09 Overcast FEW008 OVC024 9 9 100% 7 75.59 0.0
05 23:55 N 13 9.66 Light Rain Fog/Mist BKN006 OVC026 9 9 100% 7 75.62 0.0 0.1
05 23:35 N 11 8.05 Light Rain Fog/Mist BKN006 OVC023 9 9 100% 8 75.62 0.0
05 23:15 N 13 4.83 Light Rain Fog/Mist BKN006 OVC023 9 9 100% 7 75.64 0.0
05 22:55 N 20 G 26 2.41 Light Rain Fog/Mist OVC006 9 9 100% 6 75.67 0.0 0.15
05 22:35 N 13 6.44 Light Rain Fog/Mist BKN006 OVC011 10 10 100% 8 75.67 0.0
05 22:15 N 15 6.44 Light Rain Fog/Mist BKN004 BKN013 OVC018 10 10 100% 8 75.67 0.0
05 21:55 N 20 G 26 4.02 Light Rain Fog/Mist BKN004 BKN014 OVC021 11 11 100% 75.64 0.0 0.3
05 21:35 N 17 2.41 Light Rain Fog/Mist BKN006 BKN009 OVC014 11 11 100% 75.62 0.0
05 21:15 N 11 G 28 2.01 Light Rain Fog/Mist OVC006 13 13 100% 75.59 0.0
05 20:55 SW 6 2.82 Light Rain Fog/Mist OVC006 15 15 100% 75.57 0.0 0.2
05 20:35 SW 9 4.02 Light Rain Fog/Mist SCT008 BKN041 OVC048 15 15 100% 75.57 0.0
05 20:15 SW 13 4.02 Light Rain Fog/Mist SCT009 BKN018 OVC047 15 15 100% 75.57 0.0
05 19:55 SW 11 4.02 Light Rain Fog/Mist SCT009 BKN019 OVC027 15 15 20.2 14.8 100% 75.57 0.0 0.25
05 19:35 SW 13 2.01 Rain Fog/Mist SCT006 BKN030 OVC039 15 15 100% 75.57 0.0
05 19:15 SW 13 2.82 Light Rain Fog/Mist FEW006 BKN037 OVC046 15 15 100% 75.57 0.0
05 18:55 SW 13 2.41 Light Rain Fog/Mist FEW008 OVC035 15 15 100% 75.59 0.0 0.13
05 18:35 W 13 3.22 Light Rain Fog/Mist BKN035 BKN042 OVC060 15 15 100% 75.62 0.0
05 18:15 W 11 6.44 Light Rain Fog/Mist SCT075 SCT080 15 15 100% 75.62 0.0
05 17:55 W 11 6.44 Light Rain Fog/Mist FEW050 SCT075 15 15 100% 75.62 0.0 1.02
05 17:35 W 11 4.02 Light Rain Fog/Mist SCT050 SCT065 SCT075 15 15 100% 75.59 0.0
05 17:15 W 19 G 37 0.80 Thunderstorm in Vicinity Rain Fog BKN005 BKN024 OVC033 16 16 100% 75.59 0.0
05 16:55 SW 17 16.09 Light Rain OVC043 20 13 64% 75.51 0.0
05 16:35 SW 20 G 44 16.09 Overcast OVC041 20 13 64% 75.54 0.0
05 16:15 SW 19 G 30 16.09 Overcast BKN044 OVC050 20 13 64% 75.54 0.0
05 15:55 SW 22 G 35 16.09 Mostly Cloudy SCT042 BKN050 20 13 64% 75.57 0.0
05 15:35 SW 22 G 37 16.09 Mostly Cloudy BKN049 BKN060 20 13 64% 75.59 0.0
05 15:15 SW 20 G 30 16.09 Overcast SCT041 OVC049 19 13 68% 75.62 0.0
05 14:55 SW 28 G 37 16.09 Overcast SCT039 OVC045 19 13 68% 75.62 0.0
05 14:35 SW 17 G 30 16.09 Overcast FEW038 OVC047 19 14 73% 75.62 0.0
05 14:15 SW 20 G 30 16.09 Light Rain SCT040 BKN047 BKN090 19 14 73% 75.64 0.0
05 13:55 SW 26 G 35 16.09 Mostly Cloudy BKN040 BKN049 BKN110 20 14 21.5 15.3 69% 75.62 0.0
05 13:35 SW 24 G 35 16.09 Overcast SCT045 BKN060 OVC095 20 13 64% 75.64 0.0
05 13:15 W 22 G 39 16.09 Overcast FEW046 OVC060 21 13 60% 75.64 0.0
05 12:55 SW 20 G 31 16.09 Mostly Cloudy FEW047 BKN060 21 13 60% 75.64 0.0
05 12:35 SW 22 G 41 16.09 Partly Cloudy FEW042 SCT047 21 13 60% 75.64 0.0
05 12:15 W 26 G 44 16.09 Mostly Cloudy BKN040 BKN047 21 13 60% 75.67 0.0
05 11:55 SW 30 G 43 16.09 Mostly Cloudy BKN038 20 13 64% 75.67 0.0
05 11:35 SW 22 G 43 16.09 A Few Clouds FEW030 FEW038 20 14 69% 75.69 0.0
05 11:15 SW 17 16.09 A Few Clouds FEW026 19 15 78% 75.64 0.0
05 10:55 SW 15 G 35 16.09 A Few Clouds FEW025 18 14 78% 75.64 0.0
05 10:35 SW 24 G 35 16.09 Fair CLR 18 14 78% 75.59 0.0
05 10:15 SW 24 G 31 16.09 Fair CLR 18 14 78% 75.57 0.0
05 09:55 SW 20 G 28 16.09 Fair CLR 18 15 83% 75.59 0.0
05 09:35 SW 20 G 31 16.09 Fair CLR 17 14 83% 75.59 0.0
05 09:15 SW 22 G 37 16.09 Fair CLR 17 14 83% 75.59 0.0
05 08:55 SW 24 G 33 16.09 Fair CLR 16 14 88% 75.59 0.0
05 08:35 SW 17 G 33 16.09 Fair CLR 15 14 94% 75.59 0.0
05 08:15 SW 20 16.09 Partly Cloudy SCT100 16 13 83% 75.54 0.0
05 07:55 SW 28 G 43 16.09 Mostly Cloudy BKN100 15 13 19.3 14.6 88% 75.49 0.0
05 07:35 W 19 G 28 16.09 Overcast FEW042 FEW060 OVC100 15 14 94% 75.44 0.0
05 07:15 SW 22 G 39 16.09 Light Rain FEW070 BKN090 15 14 94% 75.39 0.0
05 06:55 S 28 G 41 16.09 Overcast SCT060 SCT070 OVC090 15 13 88% 75.41 0.0
05 06:35 S 26 G 35 16.09 Overcast FEW060 SCT070 OVC100 15 13 88% 75.46 0.0
05 06:15 SW 15 G 28 16.09 Light Rain SCT050 SCT070 BKN100 15 13 88% 75.54 0.0
05 05:55 SW 9 16.09 Mostly Cloudy SCT048 BKN070 BKN075 16 12 77% 75.51 0.0
05 05:35 W 13 16.09 Overcast SCT046 BKN065 OVC075 16 12 77% 75.51 0.0
05 05:15 Vrbl 9 16.09 Overcast OVC075 17 12 73% 75.51 0.0
05 04:55 W 19 G 26 16.09 Mostly Cloudy BKN075 17 11 68% 75.51 0.0
05 04:35 W 9 16.09 A Few Clouds FEW055 FEW075 17 11 68% 75.49 0.0
05 04:15 W 15 G 26 16.09 Mostly Cloudy BKN055 BKN095 18 11 64% 75.46 0.0
05 03:55 SW 24 G 37 16.09 Light Drizzle FEW043 SCT065 BKN085 18 11 64% 75.44 0.0
05 03:35 SW 17 16.09 Overcast BKN065 OVC085 18 11 64% 75.41 0.0
05 03:15 SW 19 G 31 16.09 Overcast FEW050 BKN080 OVC090 18 11 64% 75.39 0.0
05 02:55 SW 17 G 28 16.09 Overcast FEW050 FEW080 OVC090 19 11 60% 75.39 0.0
05 02:35 SW 20 G 31 16.09 Overcast OVC090 19 11 60% 75.39 0.0
05 02:15 SW 19 G 33 16.09 Mostly Cloudy BKN090 19 11 60% 75.36 0.0
05 01:55 SW 20 G 33 16.09 Mostly Cloudy BKN090 BKN110 19 11 21.1 18.8 60% 75.36 0.0
05 01:35 SW 19 G 30 16.09 A Few Clouds FEW090 FEW120 19 11 60% 75.39 0.0
05 01:15 SW 24 G 31 16.09 Partly Cloudy FEW085 SCT110 19 11 60% 75.41 0.0
05 00:55 SW 19 G 31 16.09 Mostly Cloudy BKN110 19 11 60% 75.41 0.0
05 00:35 SW 22 G 30 16.09 Mostly Cloudy BKN110 19 11 60% 75.44 0.0
05 00:15 SW 19 G 33 16.09 Mostly Cloudy BKN110 20 11 56% 75.41 0.0
04 23:55 SW 24 G 35 16.09 Partly Cloudy SCT120 20 11 56% 75.44 0.0
04 23:35 S 19 G 30 16.09 Mostly Cloudy BKN110 20 11 56% 75.44 0.0
04 23:15 S 17 G 26 16.09 Overcast OVC110 20 11 56% 75.44 0.0
04 22:55 S 17 16.09 Overcast OVC110 20 11 56% 75.44 0.0
04 22:35 S 15 16.09 Mostly Cloudy BKN110 20 11 56% 75.41 0.0
04 22:15 S 19 16.09 Overcast OVC110 20 11 56% 75.41 0.0
04 21:55 S 19 16.09 Overcast OVC100 20 11 56% 75.41 0.0
04 21:35 S 15 16.09 Partly Cloudy FEW100 SCT120 19 11 60% 75.41 0.0
04 21:15 S 11 16.09 Fair CLR 19 11 60% 75.39 0.0
04 20:55 S 11 16.09 A Few Clouds FEW100 20 11 56% 75.39 0.0
04 20:35 S 15 16.09 A Few Clouds FEW100 20 11 56% 75.39 0.0
04 20:15 SW 13 16.09 Fair CLR 21 10 50% 75.39 0.0
04 19:55 SW 15 G 28 16.09 Partly Cloudy SCT120 21 11 23.6 20.9 53% 75.39 0.0
04 19:35 SW 15 G 28 16.09 Mostly Cloudy BKN120 21 11 53% 75.41 0.0
04 19:15 SW 17 G 35 16.09 Mostly Cloudy BKN120 21 11 53% 75.41 0.0
04 18:55 SW 26 G 37 16.09 Mostly Cloudy BKN110 21 10 50% 75.41 0.0
04 18:35 SW 26 G 41 16.09 Mostly Cloudy BKN120 21 11 53% 75.44 0.0
04 18:15 SW 28 G 44 16.09 A Few Clouds FEW110 22 10 47% 75.44 0.0
04 17:55 SW 20 G 48 16.09 A Few Clouds FEW120 23 10 44% 75.44 0.0
04 17:35 W 22 G 48 16.09 A Few Clouds FEW120 23 10 44% 75.44 0.0
04 17:15 SW 31 G 48 16.09 Fair CLR 23 10 44% 75.41 0.0
04 16:55 SW 28 G 43 16.09 Fair CLR 22 11 50% 75.44 0.0
04 16:35 SW 41 G 56 16.09 Fair and Breezy CLR 23 12 50% 75.46 0.0
04 16:15 SW 24 G 48 16.09 A Few Clouds FEW065 FEW100 23 11 47% 75.49 0.0
04 15:55 SW 39 G 59 16.09 Partly Cloudy and Breezy FEW065 SCT110 23 11 47% 75.49 0.0
04 15:35 SW 30 G 44 16.09 Partly Cloudy SCT110 23 11 47% 75.49 0.0
04 15:15 SW 31 G 41 16.09 A Few Clouds FEW100 23 11 47% 75.49 0.0
04 14:55 SW 28 G 37 16.09 Partly Cloudy SCT100 23 11 47% 75.51 0.0
04 14:35 SW 28 G 39 16.09 Partly Cloudy FEW050 SCT100 22 11 50% 75.51 0.0
04 14:15 SW 26 G 33 16.09 Partly Cloudy SCT050 22 11 50% 75.51 0.0
04 13:55 SW 28 G 37 16.09 A Few Clouds FEW060 22 11 21.7 10.1 50% 75.51 0.0
04 13:35 SW 22 G 31 16.09 Fair CLR 21 11 53% 75.54 0.0
04 13:15 SW 24 G 33 16.09 Fair CLR 21 11 53% 75.57 0.0
04 12:55 S 20 G 30 16.09 Fair CLR 20 11 56% 75.57 0.0
04 12:35 SW 24 G 33 16.09 Fair CLR 19 10 56% 75.59 0.0
04 12:15 S 24 G 39 16.09 Fair CLR 19 10 56% 75.59 0.0
04 11:55 SW 22 G 39 16.09 Fair CLR 19 9 52% 75.62 0.0
04 11:35 S 24 G 37 16.09 Fair CLR 18 9 56% 75.64 0.0
04 11:15 SW 19 G 37 16.09 Fair CLR 18 9 56% 75.64 0.0
04 10:55 SW 20 G 35 16.09 Fair CLR 17 8 56% 75.64 0.0
04 10:35 SW 24 G 31 16.09 Fair CLR 17 8 56% 75.67 0.0
04 10:15 S 19 G 28 16.09 Fair CLR 16 8 59% 75.64 0.0
04 09:55 SW 28 G 39 16.09 Fair CLR 15 7 59% 75.69 0.0
Date Time (edt) Wind (kph) Vis. (km) Weather Sky Cond. Air Dwpt Max. Min. Relative Humidity Wind Chill (°C) Heat Index (°C) altimeter (cm) sea level (mb) 1 hr 3 hr 6 hr
6 hour
Temperature (ºC) Pressure Precipitation (cm)